status,avgMeasuredTime,avgSpeed,extID,medianMeasuredTime,TIMESTAMP,vehicleCount,_id,REPORT_ID
OK,78,51,992,78,2014-08-01T08:00:00,7,20747047,190853
OK,90,44,992,90,2014-08-01T08:10:00,4,20747869,190853
OK,91,43,992,91,2014-08-01T08:15:00,4,20748318,190853
OK,96,41,992,96,2014-08-01T08:20:00,2,20748767,190853
OK,81,49,992,81,2014-08-01T08:25:00,5,20749216,190853
OK,80,49,992,80,2014-08-01T08:30:00,2,20749665,190853
OK,88,45,992,88,2014-08-01T08:40:00,3,20750563,190853
OK,84,47,992,84,2014-08-01T08:50:00,4,20751461,190853
OK,72,55,992,72,2014-08-01T09:00:00,6,20752359,190853
OK,75,53,992,75,2014-08-01T09:05:00,7,20752808,190853
OK,78,51,992,78,2014-08-01T09:10:00,4,20753257,190853
OK,83,48,992,83,2014-08-01T09:20:00,5,20754155,190853
OK,84,47,992,84,2014-08-01T09:25:00,5,20754604,190853
OK,71,56,992,71,2014-08-01T09:30:00,1,20755053,190853
OK,72,55,992,72,2014-08-01T09:35:00,2,20755502,190853
OK,74,53,992,74,2014-08-01T09:40:00,1,20755951,190853
OK,88,45,992,88,2014-08-01T09:45:00,5,20756400,190853
OK,88,45,992,88,2014-08-01T09:50:00,3,20756849,190853
OK,88,45,992,88,2014-08-01T09:55:00,0,20757298,190853
OK,66,60,992,66,2014-08-01T10:00:00,1,20757747,190853
OK,82,48,992,82,2014-08-01T10:05:00,2,20758196,190853
OK,90,44,992,90,2014-08-01T10:15:00,2,20759094,190853
OK,89,44,992,89,2014-08-01T10:20:00,4,20759543,190853
OK,94,42,992,94,2014-08-01T10:25:00,4,20759992,190853
OK,88,45,992,88,2014-08-01T10:30:00,6,20760441,190853
OK,78,51,992,78,2014-08-01T10:35:00,5,20760890,190853
OK,82,48,992,82,2014-08-01T10:40:00,1,20761339,190853
OK,74,53,992,74,2014-08-01T10:50:00,2,20762237,190853
OK,87,45,992,87,2014-08-01T11:00:00,2,20763135,190853
OK,86,46,992,86,2014-08-01T11:10:00,8,20764033,190853
OK,69,57,992,69,2014-08-01T11:20:00,2,20764930,190853
OK,76,52,992,76,2014-08-01T11:25:00,4,20765379,190853
OK,76,52,992,76,2014-08-01T11:30:00,5,20765828,190853
OK,80,49,992,80,2014-08-01T11:35:00,6,20766277,190853
OK,71,56,992,71,2014-08-01T11:40:00,5,20766726,190853
OK,77,51,992,77,2014-08-01T11:45:00,5,20767175,190853
OK,82,48,992,82,2014-08-01T11:50:00,3,20767624,190853
OK,76,52,992,76,2014-08-01T11:55:00,2,20768073,190853
OK,80,49,992,80,2014-08-01T12:00:00,4,20768522,190853
OK,77,51,992,77,2014-08-01T12:10:00,4,20769420,190853
OK,81,49,992,81,2014-08-01T12:20:00,3,20770318,190853
OK,81,49,992,81,2014-08-01T12:25:00,3,20770767,190853
OK,82,48,992,82,2014-08-01T12:30:00,0,20771216,190853
OK,71,56,992,71,2014-08-01T12:35:00,1,20771665,190853
OK,71,56,992,71,2014-08-01T12:40:00,3,20772114,190853
OK,74,53,992,74,2014-08-01T12:45:00,3,20772563,190853
OK,71,56,992,71,2014-08-01T12:50:00,2,20773012,190853
OK,73,54,992,73,2014-08-01T12:55:00,4,20773461,190853
OK,74,53,992,74,2014-08-01T13:00:00,7,20773910,190853
OK,76,52,992,76,2014-08-01T13:05:00,6,20774359,190853
OK,77,51,992,77,2014-08-01T13:10:00,4,20774808,190853
OK,80,49,992,80,2014-08-01T13:15:00,4,20775257,190853
OK,82,48,992,82,2014-08-01T13:20:00,6,20775706,190853
OK,82,48,992,82,2014-08-01T13:25:00,3,20776155,190853
OK,84,47,992,84,2014-08-01T13:30:00,2,20776604,190853
OK,81,49,992,81,2014-08-01T13:35:00,1,20777053,190853
OK,81,49,992,81,2014-08-01T13:40:00,0,20777502,190853
OK,75,53,992,75,2014-08-01T13:45:00,4,20777951,190853
OK,78,51,992,78,2014-08-01T13:50:00,7,20778400,190853
OK,81,49,992,81,2014-08-01T14:00:00,2,20779298,190853
OK,81,49,992,81,2014-08-01T14:05:00,3,20779747,190853
OK,81,49,992,81,2014-08-01T14:10:00,3,20780196,190853
OK,78,51,992,78,2014-08-01T14:15:00,4,20780645,190853
OK,79,50,992,79,2014-08-01T14:20:00,3,20781094,190853
OK,74,53,992,74,2014-08-01T14:25:00,2,20781543,190853
OK,83,48,992,83,2014-08-01T14:30:00,4,20781992,190853
OK,82,48,992,82,2014-08-01T14:35:00,5,20782441,190853
OK,74,53,992,74,2014-08-01T14:40:00,1,20782890,190853
OK,74,53,992,74,2014-08-01T14:45:00,1,20783339,190853
OK,79,50,992,79,2014-08-01T14:50:00,2,20783788,190853
OK,80,49,992,80,2014-08-01T15:00:00,3,20784686,190853
OK,78,51,992,78,2014-08-01T15:05:00,0,20785135,190853
OK,84,47,992,84,2014-08-01T15:10:00,3,20785584,190853
OK,72,55,992,72,2014-08-01T15:15:00,2,20786033,190853
OK,76,52,992,76,2014-08-01T15:20:00,3,20786482,190853
OK,79,50,992,79,2014-08-01T15:25:00,5,20786931,190853
OK,79,50,992,79,2014-08-01T15:30:00,3,20787380,190853
OK,96,41,992,96,2014-08-01T15:35:00,0,20787829,190853
OK,91,43,992,91,2014-08-01T15:40:00,3,20788278,190853
OK,77,51,992,77,2014-08-01T15:45:00,7,20788727,190853
OK,76,52,992,76,2014-08-01T15:50:00,6,20789176,190853
OK,64,62,992,64,2014-08-01T15:55:00,2,20789625,190853
OK,74,53,992,74,2014-08-01T16:00:00,2,20790074,190853
OK,80,49,992,80,2014-08-01T16:05:00,1,20790523,190853
OK,79,50,992,79,2014-08-01T16:10:00,1,20790972,190853
OK,79,50,992,79,2014-08-01T16:15:00,1,20791421,190853
OK,79,50,992,79,2014-08-01T16:20:00,0,20791870,190853
OK,75,53,992,75,2014-08-01T16:25:00,1,20792319,190853
OK,84,47,992,84,2014-08-01T16:30:00,2,20792768,190853
OK,86,46,992,86,2014-08-01T16:35:00,3,20793217,190853
OK,79,50,992,79,2014-08-01T16:40:00,3,20793666,190853
OK,77,51,992,77,2014-08-01T16:45:00,2,20794115,190853
OK,76,52,992,76,2014-08-01T16:50:00,1,20794564,190853
OK,76,52,992,76,2014-08-01T16:55:00,0,20795013,190853
OK,76,52,992,76,2014-08-01T17:00:00,0,20795462,190853
OK,66,60,992,66,2014-08-01T17:05:00,1,20795911,190853
OK,70,56,992,70,2014-08-01T17:10:00,2,20796360,190853
OK,74,53,992,74,2014-08-01T17:15:00,0,20796809,190853
OK,74,53,992,74,2014-08-01T17:20:00,0,20797258,190853
OK,74,53,992,74,2014-08-01T17:25:00,0,20797707,190853
OK,74,53,992,74,2014-08-01T17:30:00,0,20798156,190853
OK,74,53,992,74,2014-08-01T17:35:00,1,20798605,190853
OK,82,48,992,82,2014-08-01T17:40:00,1,20799054,190853
OK,82,48,992,82,2014-08-01T17:45:00,1,20799503,190853
OK,82,48,992,82,2014-08-01T17:50:00,0,20799952,190853
OK,89,44,992,89,2014-08-01T17:55:00,1,20800401,190853
OK,89,44,992,89,2014-08-01T18:00:00,1,20800850,190853
OK,89,44,992,89,2014-08-01T18:05:00,0,20801299,190853
OK,89,44,992,89,2014-08-01T18:10:00,0,20801748,190853
OK,89,44,992,89,2014-08-01T18:15:00,0,20802197,190853
OK,89,44,992,89,2014-08-01T18:20:00,0,20802646,190853
OK,89,44,992,89,2014-08-01T18:25:00,0,20803095,190853
OK,89,44,992,89,2014-08-01T18:30:00,0,20803544,190853
OK,89,44,992,89,2014-08-01T18:35:00,0,20803993,190853
OK,89,44,992,89,2014-08-01T18:40:00,0,20804442,190853
OK,89,44,992,89,2014-08-01T18:45:00,0,20804891,190853
OK,89,44,992,89,2014-08-01T18:50:00,0,20805340,190853
OK,89,44,992,89,2014-08-01T18:55:00,0,20805789,190853
OK,89,44,992,89,2014-08-01T19:00:00,0,20806238,190853
OK,81,49,992,81,2014-08-01T19:05:00,0,20806687,190853
OK,81,49,992,81,2014-08-01T19:10:00,0,20807136,190853
OK,81,49,992,81,2014-08-01T19:15:00,0,20807585,190853
OK,81,49,992,81,2014-08-01T19:20:00,0,20808034,190853
OK,81,49,992,81,2014-08-01T19:25:00,0,20808483,190853
OK,81,49,992,81,2014-08-01T19:30:00,0,20808932,190853
OK,81,49,992,81,2014-08-01T19:35:00,0,20809381,190853
OK,81,49,992,81,2014-08-01T19:40:00,0,20809830,190853
OK,81,49,992,81,2014-08-01T19:45:00,0,20810279,190853
OK,61,65,992,61,2014-08-01T19:50:00,1,20810728,190853
OK,61,65,992,61,2014-08-01T19:55:00,1,20811177,190853
OK,61,65,992,61,2014-08-01T22:00:00,0,20816906,190853
OK,61,65,992,61,2014-08-02T00:00:00,0,20823345,190853
OK,61,65,992,61,2014-08-02T00:05:00,0,20823794,190853
OK,61,65,992,61,2014-08-02T00:10:00,0,20824243,190853
OK,61,65,992,61,2014-08-02T00:15:00,0,20824692,190853
OK,61,65,992,61,2014-08-02T00:20:00,0,20825141,190853
OK,61,65,992,61,2014-08-02T00:25:00,0,20825590,190853
OK,61,65,992,61,2014-08-02T00:30:00,0,20826039,190853
OK,61,65,992,61,2014-08-02T00:35:00,0,20826488,190853
OK,61,65,992,61,2014-08-02T00:40:00,0,20826937,190853
OK,61,65,992,61,2014-08-02T00:45:00,0,20827386,190853
OK,61,65,992,61,2014-08-02T00:50:00,0,20827835,190853
OK,61,65,992,61,2014-08-02T00:55:00,0,20828284,190853
OK,61,65,992,61,2014-08-02T01:00:00,0,20828733,190853
OK,61,65,992,61,2014-08-02T01:05:00,0,20829182,190853
OK,61,65,992,61,2014-08-02T01:10:00,0,20829631,190853
OK,61,65,992,61,2014-08-02T01:15:00,1,20830080,190853
OK,61,65,992,61,2014-08-02T01:20:00,0,20830529,190853
OK,61,65,992,61,2014-08-02T01:25:00,0,20830978,190853
OK,61,65,992,61,2014-08-02T01:30:00,0,20831427,190853
OK,61,65,992,61,2014-08-02T01:35:00,0,20831876,190853
OK,61,65,992,61,2014-08-02T01:40:00,0,20832325,190853
OK,61,65,992,61,2014-08-02T01:45:00,0,20832774,190853
OK,61,65,992,61,2014-08-02T01:50:00,0,20833223,190853
OK,61,65,992,61,2014-08-02T01:55:00,0,20833672,190853
OK,61,65,992,61,2014-08-02T02:00:00,0,20834121,190853
OK,61,65,992,61,2014-08-02T02:05:00,0,20834570,190853
OK,61,65,992,61,2014-08-02T02:10:00,0,20835019,190853
OK,61,65,992,61,2014-08-02T02:15:00,0,20835468,190853
OK,61,65,992,61,2014-08-02T02:20:00,0,20835917,190853
OK,61,65,992,61,2014-08-02T02:25:00,0,20836366,190853
OK,61,65,992,61,2014-08-02T02:30:00,0,20836815,190853
OK,61,65,992,61,2014-08-02T02:35:00,0,20837264,190853
OK,61,65,992,61,2014-08-02T02:40:00,0,20837713,190853
OK,61,65,992,61,2014-08-02T02:45:00,0,20838162,190853
OK,61,65,992,61,2014-08-02T02:50:00,0,20838611,190853
OK,61,65,992,61,2014-08-02T02:55:00,0,20839060,190853
OK,61,65,992,61,2014-08-02T03:00:00,0,20839509,190853
OK,61,65,992,61,2014-08-02T03:05:00,0,20839958,190853
OK,61,65,992,61,2014-08-02T03:10:00,0,20840407,190853
OK,61,65,992,61,2014-08-02T03:15:00,0,20840856,190853
OK,61,65,992,61,2014-08-02T03:20:00,0,20841305,190853
OK,61,65,992,61,2014-08-02T03:25:00,0,20841754,190853
OK,61,65,992,61,2014-08-02T03:30:00,0,20842203,190853
OK,61,65,992,61,2014-08-02T03:35:00,0,20842652,190853
OK,61,65,992,61,2014-08-02T03:40:00,0,20843101,190853
OK,61,65,992,61,2014-08-02T03:45:00,0,20843550,190853
OK,61,65,992,61,2014-08-02T03:50:00,0,20843999,190853
OK,61,65,992,61,2014-08-02T03:55:00,0,20844448,190853
OK,61,65,992,61,2014-08-02T06:00:00,0,20851902,190853
OK,61,65,992,61,2014-08-02T06:05:00,0,20852351,190853
OK,61,65,992,61,2014-08-02T06:10:00,0,20852800,190853
OK,64,62,992,64,2014-08-02T06:15:00,1,20853249,190853
OK,81,49,992,81,2014-08-02T06:20:00,1,20853698,190853
OK,81,49,992,81,2014-08-02T06:25:00,1,20854147,190853
OK,81,49,992,81,2014-08-02T06:30:00,0,20854596,190853
OK,81,49,992,81,2014-08-02T06:35:00,0,20855045,190853
OK,81,49,992,81,2014-08-02T06:40:00,0,20855494,190853
OK,81,49,992,81,2014-08-02T06:45:00,0,20855943,190853
OK,81,49,992,81,2014-08-02T06:50:00,0,20856392,190853
OK,76,52,992,76,2014-08-02T06:55:00,1,20856841,190853
OK,76,52,992,76,2014-08-02T07:00:00,1,20857290,190853
OK,76,52,992,76,2014-08-02T07:05:00,0,20857739,190853
OK,71,56,992,71,2014-08-02T07:10:00,1,20858188,190853
OK,71,56,992,71,2014-08-02T07:15:00,1,20858637,190853
OK,76,52,992,76,2014-08-02T07:20:00,3,20859086,190853
OK,96,41,992,96,2014-08-02T07:25:00,2,20859535,190853
OK,73,54,992,73,2014-08-02T07:30:00,2,20859984,190853
OK,67,59,992,67,2014-08-02T07:35:00,1,20860433,190853
OK,67,59,992,67,2014-08-02T07:40:00,0,20860882,190853
OK,73,54,992,73,2014-08-02T07:45:00,2,20861331,190853
OK,73,54,992,73,2014-08-02T07:50:00,2,20861780,190853
OK,88,45,992,88,2014-08-02T07:55:00,2,20862229,190853
OK,82,48,992,82,2014-08-02T08:00:00,2,20862678,190853
OK,69,57,992,69,2014-08-02T08:05:00,2,20863127,190853
OK,77,51,992,77,2014-08-02T08:10:00,2,20863576,190853
OK,77,51,992,77,2014-08-02T08:15:00,2,20864025,190853
OK,110,36,992,110,2014-08-02T08:20:00,2,20864474,190853
OK,74,53,992,74,2014-08-02T08:25:00,4,20864923,190853
OK,86,46,992,86,2014-08-02T08:30:00,2,20865372,190853
OK,80,49,992,80,2014-08-02T08:35:00,3,20865821,190853
OK,76,52,992,76,2014-08-02T08:40:00,4,20866270,190853
OK,74,53,992,74,2014-08-02T08:45:00,2,20866719,190853
OK,84,47,992,84,2014-08-02T08:50:00,1,20867168,190853
OK,84,47,992,84,2014-08-02T08:55:00,0,20867617,190853
OK,85,46,992,85,2014-08-02T09:00:00,1,20868066,190853
OK,76,52,992,76,2014-08-02T09:05:00,1,20868515,190853
OK,91,43,992,91,2014-08-02T09:10:00,3,20868964,190853
OK,91,43,992,91,2014-08-02T09:15:00,3,20869413,190853
OK,85,46,992,85,2014-08-02T09:20:00,2,20869862,190853
OK,86,46,992,86,2014-08-02T09:25:00,3,20870311,190853
OK,91,43,992,91,2014-08-02T09:30:00,1,20870760,190853
OK,79,50,992,79,2014-08-02T09:35:00,0,20871209,190853
OK,72,55,992,72,2014-08-02T09:40:00,1,20871658,190853
OK,73,54,992,73,2014-08-02T09:45:00,2,20872107,190853
OK,80,49,992,80,2014-08-02T09:50:00,3,20872556,190853
OK,72,55,992,72,2014-08-02T09:55:00,4,20873005,190853
OK,74,53,992,74,2014-08-02T10:00:00,3,20873454,190853
OK,81,49,992,81,2014-08-02T10:05:00,3,20873903,190853
OK,80,49,992,80,2014-08-02T10:10:00,2,20874352,190853
OK,80,49,992,80,2014-08-02T10:15:00,2,20874801,190853
OK,85,46,992,85,2014-08-02T10:20:00,1,20875250,190853
OK,71,56,992,71,2014-08-02T10:25:00,1,20875699,190853
OK,76,52,992,76,2014-08-02T10:30:00,2,20876148,190853
OK,84,47,992,84,2014-08-02T10:35:00,1,20876597,190853
OK,77,51,992,77,2014-08-02T10:40:00,2,20877046,190853
OK,76,52,992,76,2014-08-02T10:45:00,4,20877495,190853
OK,76,52,992,76,2014-08-02T10:50:00,5,20877944,190853
OK,83,48,992,83,2014-08-02T10:55:00,4,20878393,190853
OK,83,48,992,83,2014-08-02T11:00:00,4,20878842,190853
OK,76,52,992,76,2014-08-02T11:05:00,6,20879291,190853
OK,73,54,992,73,2014-08-02T11:10:00,4,20879740,190853
OK,76,52,992,76,2014-08-02T11:15:00,4,20880189,190853
OK,94,42,992,94,2014-08-02T11:20:00,4,20880638,190853
OK,104,38,992,104,2014-08-02T11:25:00,3,20881087,190853
OK,69,57,992,69,2014-08-02T11:30:00,3,20881536,190853
OK,73,54,992,73,2014-08-02T11:35:00,4,20881985,190853
OK,83,48,992,83,2014-08-02T11:40:00,4,20882434,190853
OK,85,46,992,85,2014-08-02T11:45:00,3,20882883,190853
OK,109,36,992,109,2014-08-02T11:50:00,2,20883332,190853
OK,77,51,992,77,2014-08-02T11:55:00,3,20883781,190853
OK,77,51,992,77,2014-08-02T12:00:00,1,20884230,190853
OK,77,51,992,77,2014-08-02T12:05:00,0,20884679,190853
OK,83,48,992,83,2014-08-02T12:10:00,2,20885128,190853
OK,78,51,992,78,2014-08-02T12:15:00,3,20885577,190853
OK,71,56,992,71,2014-08-02T12:20:00,0,20886026,190853
OK,86,46,992,86,2014-08-02T12:25:00,1,20886475,190853
OK,76,52,992,76,2014-08-02T12:30:00,1,20886924,190853
OK,167,23,992,167,2014-08-02T12:35:00,1,20887373,190853
OK,74,53,992,74,2014-08-02T12:40:00,3,20887822,190853
OK,74,53,992,74,2014-08-02T12:45:00,0,20888271,190853
OK,70,56,992,70,2014-08-02T12:50:00,1,20888720,190853
OK,83,48,992,83,2014-08-02T12:55:00,3,20889169,190853
OK,76,52,992,76,2014-08-02T13:00:00,1,20889618,190853
OK,76,52,992,76,2014-08-02T13:05:00,0,20890067,190853
OK,72,55,992,72,2014-08-02T13:10:00,2,20890516,190853
OK,74,53,992,74,2014-08-02T13:15:00,2,20890965,190853
OK,76,52,992,76,2014-08-02T13:20:00,5,20891414,190853
OK,82,48,992,82,2014-08-02T13:25:00,6,20891863,190853
OK,71,56,992,71,2014-08-02T13:30:00,2,20892312,190853
OK,63,63,992,63,2014-08-02T13:35:00,1,20892761,190853
OK,77,51,992,77,2014-08-02T13:40:00,2,20893210,190853
OK,79,50,992,79,2014-08-02T13:45:00,4,20893659,190853
OK,81,49,992,81,2014-08-02T13:50:00,3,20894108,190853
OK,70,56,992,70,2014-08-02T13:55:00,2,20894557,190853
OK,76,52,992,76,2014-08-02T14:00:00,1,20895006,190853
OK,64,62,992,64,2014-08-02T14:05:00,2,20895455,190853
OK,67,59,992,67,2014-08-02T14:10:00,1,20895904,190853
OK,67,59,992,67,2014-08-02T14:15:00,0,20896353,190853
OK,72,55,992,72,2014-08-02T14:20:00,2,20896802,190853
OK,76,52,992,76,2014-08-02T14:25:00,3,20897251,190853
OK,71,56,992,71,2014-08-02T14:30:00,2,20897700,190853
OK,87,45,992,87,2014-08-02T14:35:00,2,20898149,190853
OK,114,34,992,114,2014-08-02T14:40:00,1,20898598,190853
OK,70,56,992,70,2014-08-02T14:45:00,1,20899047,190853
OK,70,56,992,70,2014-08-02T14:50:00,1,20899496,190853
OK,70,56,992,70,2014-08-02T14:55:00,0,20899945,190853
OK,70,56,992,70,2014-08-02T15:00:00,0,20900394,190853
OK,70,56,992,70,2014-08-02T15:05:00,0,20900843,190853
OK,70,56,992,70,2014-08-02T15:10:00,0,20901292,190853
OK,70,56,992,70,2014-08-02T15:15:00,0,20901741,190853
OK,77,51,992,77,2014-08-02T15:20:00,1,20902190,190853
OK,76,52,992,76,2014-08-02T15:25:00,4,20902639,190853
OK,80,49,992,80,2014-08-02T15:30:00,1,20903088,190853
OK,80,49,992,80,2014-08-02T15:35:00,0,20903537,190853
OK,75,53,992,75,2014-08-02T15:40:00,2,20903986,190853
OK,75,53,992,75,2014-08-02T15:45:00,2,20904435,190853
OK,84,47,992,84,2014-08-02T15:50:00,1,20904884,190853
OK,84,47,992,84,2014-08-02T15:55:00,0,20905333,190853
OK,84,47,992,84,2014-08-02T16:00:00,0,20905782,190853
OK,84,47,992,84,2014-08-02T16:05:00,1,20906231,190853
OK,82,48,992,82,2014-08-02T16:10:00,4,20906680,190853
OK,89,44,992,89,2014-08-02T16:15:00,1,20907129,190853
OK,87,45,992,87,2014-08-02T16:20:00,2,20907578,190853
OK,65,61,992,65,2014-08-02T16:25:00,3,20908027,190853
OK,58,68,992,58,2014-08-02T16:30:00,1,20908476,190853
OK,72,55,992,72,2014-08-02T16:35:00,1,20908925,190853
OK,72,55,992,72,2014-08-02T16:40:00,1,20909374,190853
OK,72,55,992,72,2014-08-02T16:45:00,0,20909823,190853
OK,72,55,992,72,2014-08-02T16:50:00,0,20910272,190853
OK,72,55,992,72,2014-08-02T16:55:00,0,20910721,190853
OK,72,55,992,72,2014-08-02T17:00:00,0,20911170,190853
OK,72,55,992,72,2014-08-02T17:05:00,0,20911619,190853
OK,96,41,992,96,2014-08-02T17:10:00,1,20912068,190853
OK,69,57,992,69,2014-08-02T17:15:00,2,20912517,190853
OK,75,53,992,75,2014-08-02T17:20:00,4,20912966,190853
OK,74,53,992,74,2014-08-02T17:25:00,3,20913415,190853
OK,77,51,992,77,2014-08-02T17:30:00,1,20913864,190853
OK,88,45,992,88,2014-08-02T17:35:00,1,20914313,190853
OK,67,59,992,67,2014-08-02T17:40:00,1,20914762,190853
OK,67,59,992,67,2014-08-02T17:45:00,0,20915211,190853
OK,67,59,992,67,2014-08-02T17:50:00,0,20915660,190853
OK,67,59,992,67,2014-08-02T17:55:00,0,20916109,190853
OK,67,59,992,67,2014-08-02T18:00:00,0,20916558,190853
OK,67,59,992,67,2014-08-02T18:05:00,0,20917007,190853
OK,67,59,992,67,2014-08-02T18:10:00,0,20917456,190853
OK,60,66,992,60,2014-08-02T18:15:00,0,20917905,190853
OK,60,66,992,60,2014-08-02T18:20:00,0,20918354,190853
OK,60,66,992,60,2014-08-02T18:25:00,0,20918803,190853
OK,64,62,992,64,2014-08-02T18:30:00,3,20919252,190853
OK,63,63,992,63,2014-08-02T18:35:00,2,20919701,190853
OK,86,46,992,86,2014-08-02T18:40:00,1,20920150,190853
OK,81,49,992,81,2014-08-02T18:45:00,1,20920599,190853
OK,81,49,992,81,2014-08-02T18:50:00,1,20921048,190853
OK,81,49,992,81,2014-08-02T18:55:00,0,20921497,190853
OK,79,50,992,79,2014-08-02T19:00:00,1,20921946,190853
OK,79,50,992,79,2014-08-02T19:05:00,1,20922395,190853
OK,79,50,992,79,2014-08-02T19:10:00,0,20922844,190853
OK,68,58,992,68,2014-08-02T19:15:00,1,20923293,190853
OK,68,58,992,68,2014-08-02T19:20:00,0,20923742,190853
OK,68,58,992,68,2014-08-02T19:25:00,0,20924191,190853
OK,68,58,992,68,2014-08-02T19:30:00,0,20924640,190853
OK,68,58,992,68,2014-08-02T19:35:00,0,20925089,190853
OK,68,58,992,68,2014-08-02T19:40:00,0,20925538,190853
OK,68,58,992,68,2014-08-02T19:45:00,0,20925987,190853
OK,68,58,992,68,2014-08-02T19:50:00,0,20926436,190853
OK,68,58,992,68,2014-08-02T19:55:00,0,20926885,190853
OK,68,58,992,68,2014-08-02T20:00:00,0,20927334,190853
OK,79,50,992,79,2014-08-02T20:05:00,1,20927783,190853
OK,79,50,992,79,2014-08-02T20:10:00,0,20928232,190853
OK,79,50,992,79,2014-08-02T20:15:00,0,20928681,190853
OK,76,52,992,76,2014-08-02T20:20:00,1,20929130,190853
OK,90,44,992,90,2014-08-02T20:25:00,2,20929579,190853
OK,104,38,992,104,2014-08-02T20:30:00,0,20930028,190853
OK,104,38,992,104,2014-08-02T20:35:00,0,20930477,190853
OK,77,51,992,77,2014-08-02T20:40:00,1,20930926,190853
OK,77,51,992,77,2014-08-02T20:45:00,1,20931375,190853
OK,77,51,992,77,2014-08-02T20:50:00,0,20931824,190853
OK,77,51,992,77,2014-08-02T20:55:00,0,20932273,190853
OK,77,51,992,77,2014-08-02T21:00:00,0,20932722,190853
OK,72,55,992,72,2014-08-02T21:05:00,1,20933171,190853
OK,82,48,992,82,2014-08-02T21:10:00,3,20933620,190853
OK,82,48,992,82,2014-08-02T21:15:00,2,20934069,190853
OK,82,48,992,82,2014-08-02T21:20:00,0,20934518,190853
OK,83,48,992,83,2014-08-02T21:25:00,1,20934967,190853
OK,83,48,992,83,2014-08-02T21:30:00,0,20935416,190853
OK,91,43,992,91,2014-08-02T21:35:00,1,20935865,190853
OK,83,48,992,83,2014-08-02T21:40:00,2,20936314,190853
OK,75,53,992,75,2014-08-02T21:45:00,0,20936763,190853
OK,75,53,992,75,2014-08-02T21:50:00,0,20937212,190853
OK,75,53,992,75,2014-08-02T21:55:00,0,20937661,190853
OK,75,53,992,75,2014-08-02T22:00:00,0,20938110,190853
OK,75,53,992,75,2014-08-02T22:05:00,0,20938559,190853
OK,75,53,992,75,2014-08-02T22:10:00,0,20939008,190853
OK,75,53,992,75,2014-08-02T22:15:00,0,20939457,190853
OK,75,53,992,75,2014-08-02T22:20:00,0,20939906,190853
OK,75,53,992,75,2014-08-02T22:25:00,0,20940355,190853
OK,75,53,992,75,2014-08-02T22:30:00,0,20940804,190853
OK,75,53,992,75,2014-08-02T22:35:00,0,20941253,190853
OK,75,53,992,75,2014-08-02T22:40:00,0,20941702,190853
OK,75,53,992,75,2014-08-02T22:45:00,0,20942151,190853
OK,76,52,992,76,2014-08-02T22:50:00,1,20942600,190853
OK,76,52,992,76,2014-08-02T22:55:00,0,20943049,190853
OK,76,52,992,76,2014-08-02T23:00:00,0,20943498,190853
OK,76,52,992,76,2014-08-02T23:10:00,0,20943947,190853
OK,76,52,992,76,2014-08-02T23:15:00,0,20944396,190853
OK,76,52,992,76,2014-08-02T23:20:00,0,20944845,190853
OK,76,52,992,76,2014-08-02T23:25:00,0,20945294,190853
OK,76,52,992,76,2014-08-02T23:30:00,0,20945743,190853
OK,76,52,992,76,2014-08-02T23:35:00,0,20946192,190853
OK,76,52,992,76,2014-08-02T23:40:00,0,20946641,190853
OK,76,52,992,76,2014-08-02T23:45:00,0,20947090,190853
OK,76,52,992,76,2014-08-02T23:50:00,0,20947539,190853
OK,76,52,992,76,2014-08-02T23:55:00,0,20947988,190853
OK,76,52,992,76,2014-08-03T00:00:00,0,20948437,190853
OK,76,52,992,76,2014-08-03T00:05:00,0,20948886,190853
OK,76,52,992,76,2014-08-03T00:10:00,0,20949334,190853
OK,76,52,992,76,2014-08-03T00:15:00,0,20949783,190853
OK,76,52,992,76,2014-08-03T00:20:00,0,20950232,190853
OK,76,52,992,76,2014-08-03T00:25:00,0,20950681,190853
OK,76,52,992,76,2014-08-03T00:30:00,0,20951130,190853
OK,76,52,992,76,2014-08-03T00:35:00,0,20951579,190853
OK,76,52,992,76,2014-08-03T00:40:00,0,20952028,190853
OK,76,52,992,76,2014-08-03T00:45:00,0,20952477,190853
OK,76,52,992,76,2014-08-03T00:50:00,0,20952926,190853
OK,76,52,992,76,2014-08-03T00:55:00,0,20953375,190853
OK,76,52,992,76,2014-08-03T01:00:00,0,20953824,190853
OK,76,52,992,76,2014-08-03T01:05:00,0,20954273,190853
OK,76,52,992,76,2014-08-03T01:10:00,0,20954722,190853
OK,76,52,992,76,2014-08-03T01:15:00,0,20955171,190853
OK,140,28,992,140,2014-08-03T01:20:00,1,20955620,190853
OK,140,28,992,140,2014-08-03T01:25:00,0,20956069,190853
OK,140,28,992,140,2014-08-03T01:30:00,0,20956518,190853
OK,140,28,992,140,2014-08-03T01:35:00,0,20956967,190853
OK,140,28,992,140,2014-08-03T01:40:00,0,20957416,190853
OK,140,28,992,140,2014-08-03T01:45:00,0,20957865,190853
OK,83,48,992,83,2014-08-03T01:50:00,1,20958314,190853
OK,83,48,992,83,2014-08-03T01:55:00,1,20958763,190853
OK,83,48,992,83,2014-08-03T02:00:00,0,20959212,190853
OK,83,48,992,83,2014-08-03T02:05:00,0,20959661,190853
OK,83,48,992,83,2014-08-03T02:10:00,0,20960110,190853
OK,83,48,992,83,2014-08-03T02:15:00,0,20960559,190853
OK,83,48,992,83,2014-08-03T02:20:00,0,20961008,190853
OK,83,48,992,83,2014-08-03T02:25:00,0,20961457,190853
OK,83,48,992,83,2014-08-03T02:30:00,0,20961906,190853
OK,83,48,992,83,2014-08-03T02:35:00,0,20962355,190853
OK,83,48,992,83,2014-08-03T02:40:00,0,20962804,190853
OK,83,48,992,83,2014-08-03T02:45:00,0,20963253,190853
OK,83,48,992,83,2014-08-03T02:50:00,0,20963702,190853
OK,83,48,992,83,2014-08-03T02:55:00,0,20964151,190853
OK,83,48,992,83,2014-08-03T03:00:00,0,20964600,190853
OK,83,48,992,83,2014-08-03T03:05:00,0,20965049,190853
OK,83,48,992,83,2014-08-03T03:10:00,0,20965498,190853
OK,83,48,992,83,2014-08-03T03:15:00,0,20965947,190853